Amateur Radio Satellites - All Passes

Search period start: 24 May 2013 04:05
Search period end: 25 May 2013 04:05
Location: State Camp, 41.2367°N, 77.7828°W

Satellite Date Start Highest point End Downlink Frequencies (MHz)
Time Altitude Azimuth
ISS 24 May 04:07:32 04:10:27 28° 336° (NNW) 04:13:24 145.800 FM
Oscar 16 24 May 04:10:50 04:14:59 25° 295° (WNW) 04:19:06 437.025 USB, Beacon 2401.1428
RS-15 24 May 04:12:16 04:19:46 22° 260° (W) 04:27:13 29.354 - 29.394 USB, Beacon 29.352 USB
KITSAT 1 24 May 04:19:35 04:21:22 11° 3° (N) 04:23:09 435.175 FM
AO-27 24 May 04:22:46 04:27:05 27° 294° (WNW) 04:31:24 436.795 MHz FM
ITAMSAT 1 24 May 04:29:13 04:33:21 24° 295° (WNW) 04:37:29 435.822 SSB
TMSAT-1 24 May 04:31:31 04:36:19 33° 96° (E) 04:41:05 436.925 FM
Gurwin Techsat 1B 24 May 04:53:49 04:59:10 81° 103° (ESE) 05:04:29 435.225 FM
Uosat F 24 May 04:56:37 05:01:40 79° 285° (WNW) 05:06:41 435.120 FM
AO-Echo 24 May 05:03:19 05:07:20 28° 292° (WNW) 05:11:25 ?
Uribyol 2 24 May 05:12:45 05:13:34 10° 303° (WNW) 05:14:22 436.500 FM
STRAND 1 24 May 05:34:14 05:37:52 20° 63° (ENE) 05:41:31 ?
ISS 24 May 05:46:08 05:48:00 14° 356° (N) 05:49:53 145.800 FM
Saudisat 1A 24 May 05:46:40 05:51:10 65° 120° (ESE) 05:55:45 436.775 MHz
AO-7 24 May 06:01:51 06:10:08 60° 103° (ESE) 06:18:21 29.400 - 29.500 MHz
TMSAT-1 24 May 06:11:33 06:16:10 31° 293° (WNW) 06:20:46 436.925 FM
KITSAT 1 24 May 06:14:41 06:20:40 22° 34° (NNE) 06:26:38 435.175 FM
Gurwin Techsat 1B 24 May 06:35:45 06:38:27 14° 300° (WNW) 06:41:09 435.225 FM
Uosat F 24 May 06:39:11 06:39:37 10° 303° (WNW) 06:40:03 435.120 FM
PCSat 24 May 07:02:53 07:07:52 39° 111° (ESE) 07:12:53 145.825 MHz
STRAND 1 24 May 07:11:45 07:16:41 51° 260° (W) 07:21:40 ?
Hamsat 24 May 07:12:09 07:14:44 15° 91° (E) 07:17:19 145.90 MHz
ISS 24 May 07:23:12 07:25:42 19° 17° (NNE) 07:28:12 145.800 FM
Saudisat 1A 24 May 07:28:04 07:31:19 19° 318° (NW) 07:34:35 436.775 MHz
Sapphire 24 May 07:35:27 07:40:49 72° 116° (ESE) 07:46:13 437.095 MHz 1200 baud AX-25 AFSK
SO-50 24 May 07:35:34 07:38:06 14° 109° (ESE) 07:40:38 436.795 FM
Oscar 10/S400 24 May 07:54:50 10:35:47 39° 261° (W) 17:50:44 145.825 - 145.975 CW/USB, Beacon 145.810 USB
AO-7 24 May 07:55:18 08:02:27 33° 302° (WNW) 08:09:35 29.400 - 29.500 MHz
KITSAT 1 24 May 08:09:26 08:17:35 73° 57° (ENE) 08:25:41 435.175 FM
JAS-1B 24 May 08:31:03 08:36:39 40° 97° (E) 08:41:56 435.800 - 435.900 CW/SSB
SO-67 24 May 08:31:18 08:34:38 35° 98° (E) 08:37:56 435.3500 MHz FM
PCSat 24 May 08:46:33 08:51:21 32° 309° (NW) 08:56:11 145.825 MHz
Hamsat 24 May 08:46:51 08:51:03 47° 287° (WNW) 08:55:15 145.90 MHz
ISS 24 May 08:59:28 09:02:50 78° 35° (NE) 09:06:12 145.800 FM
SO-50 24 May 09:13:25 09:18:12 69° 305° (NW) 09:22:56 436.795 FM
Sapphire 24 May 09:20:53 09:24:48 20° 316° (NW) 09:28:45 437.095 MHz 1200 baud AX-25 AFSK
JAS-2 24 May 09:31:21 09:34:45 14° 85° (E) 09:37:58 435.800 - 435.900 CW/SSB, 435.910 FM
SO-67 24 May 10:05:50 10:07:47 14° 293° (WNW) 10:09:43 435.3500 MHz FM
KITSAT 1 24 May 10:06:00 10:12:12 25° 256° (WSW) 10:18:24 435.175 FM
HO-68 24 May 10:07:42 10:14:22 40° 98° (E) 10:21:00 435.675 MHz FM
JAS-1B 24 May 10:22:13 10:27:08 27° 298° (WNW) 10:31:46 435.800 - 435.900 CW/SSB
UOSAT-12 24 May 10:27:33 10:30:06 15° 109° (ESE) 10:32:40 437.025 FM, 437.400 FM
OPAL 24 May 10:29:13 10:31:34 13° 92° (E) 10:33:54 ?
ISS 24 May 10:37:43 10:39:07 12° 231° (SW) 10:40:32 145.800 FM
Oscar 11 24 May 10:48:49 10:53:06 52° 100° (E) 10:57:21 145.825 FM, Beacon 2401.500 USB
SO-50 24 May 10:57:39 10:59:41 13° 324° (NW) 11:01:44 436.795 FM
JAS-2 24 May 11:13:59 11:20:53 85° 285° (WNW) 11:26:54 435.800 - 435.900 CW/SSB, 435.910 FM
MaSat-1 24 May 11:35:07 11:38:23 81° 63° (ENE) 11:41:04 437.345 MHz
HO-68 24 May 11:55:27 12:02:00 40° 296° (WNW) 12:08:33 435.675 MHz FM
UOSAT-12 24 May 12:05:19 12:09:46 60° 306° (NW) 12:14:17 437.025 FM, 437.400 FM
OPAL 24 May 12:05:59 12:10:58 69° 289° (WNW) 12:15:53 ?
Oscar 11 24 May 12:26:22 12:28:54 15° 296° (WNW) 12:31:26 145.825 FM, Beacon 2401.500 USB
PANSAT 24 May 12:32:49 12:34:26 12° 176° (S) 12:36:03 not established
JAS-2 24 May 13:00:57 13:04:43 16° 306° (NW) 13:08:16 435.800 - 435.900 CW/SSB, 435.910 FM
Oscar 19 24 May 13:09:30 13:13:32 23° 64° (ENE) 13:17:34 437.125 CW, 437.150 USB
Uribyol 2 24 May 13:10:06 13:13:53 21° 63° (ENE) 13:17:41 436.500 FM
Oscar 16 24 May 13:47:52 13:52:58 60° 73° (ENE) 13:58:06 437.025 USB, Beacon 2401.1428
UOSAT-12 24 May 13:49:46 13:50:55 11° 326° (NW) 13:52:03 437.025 FM, 437.400 FM
AO-27 24 May 14:01:04 14:06:08 59° 72° (ENE) 14:11:14 436.795 MHz FM
ITAMSAT 1 24 May 14:07:13 14:12:19 65° 73° (ENE) 14:17:28 435.822 SSB
PANSAT 24 May 14:13:11 14:14:00 11° 189° (S) 14:14:50 not established
Saudisat 1A 24 May 14:14:11 14:18:39 52° 53° (NE) 14:23:01 436.775 MHz
RS-15 24 May 14:17:45 14:21:15 12° 94° (E) 14:24:43 29.354 - 29.394 USB, Beacon 29.352 USB
Uosat F 24 May 14:33:26 14:36:42 18° 62° (ENE) 14:39:58 435.120 FM
AO-Echo 24 May 14:37:36 14:42:07 41° 71° (ENE) 14:46:33 ?
Gurwin Techsat 1B 24 May 14:37:40 14:40:57 17° 61° (ENE) 14:44:15 435.225 FM
Sapphire 24 May 14:42:29 14:44:15 11° 36° (NE) 14:46:00 437.095 MHz 1200 baud AX-25 AFSK
Oscar 19 24 May 14:47:37 14:52:35 45° 261° (W) 14:57:35 437.125 CW, 437.150 USB
Uribyol 2 24 May 14:47:58 14:52:59 51° 260° (W) 14:58:04 436.500 FM
AO-7 24 May 15:12:04 15:17:18 19° 49° (NE) 15:22:32 29.400 - 29.500 MHz
Oscar 16 24 May 15:29:30 15:32:44 17° 269° (W) 15:35:58 437.025 USB, Beacon 2401.1428
AO-27 24 May 15:42:46 15:46:02 17° 269° (W) 15:49:20 436.795 MHz FM
ITAMSAT 1 24 May 15:49:23 15:52:17 15° 269° (W) 15:55:12 435.822 SSB
PCSat 24 May 15:50:42 15:55:37 33° 51° (NE) 16:00:30 145.825 MHz
TMSAT-1 24 May 15:52:17 15:57:23 52° 71° (ENE) 16:02:31 436.925 FM
Saudisat 1A 24 May 15:54:59 15:57:56 17° 250° (WSW) 16:00:50 436.775 MHz
SO-50 24 May 16:06:16 16:09:08 16° 40° (NE) 16:11:59 436.795 FM
Uosat F 24 May 16:10:08 16:15:03 57° 259° (W) 16:19:59 435.120 FM
Gurwin Techsat 1B 24 May 16:15:06 16:20:22 67° 258° (WSW) 16:25:40 435.225 FM
AO-Echo 24 May 16:17:27 16:21:04 21° 266° (W) 16:24:38 ?
RS-15 24 May 16:19:28 16:31:14 62° 114° (ESE) 16:42:31 29.354 - 29.394 USB, Beacon 29.352 USB
Sapphire 24 May 16:23:33 16:28:55 56° 57° (ENE) 16:34:14 437.095 MHz 1200 baud AX-25 AFSK
AO-7 24 May 17:00:32 17:08:48 78° 69° (ENE) 17:17:08 29.400 - 29.500 MHz
TMSAT-1 24 May 17:33:50 17:37:37 20° 268° (W) 17:41:25 436.925 FM
PCSat 24 May 17:34:06 17:39:03 37° 249° (WSW) 17:43:59 145.825 MHz
SO-50 24 May 17:45:46 17:50:19 77° 239° (WSW) 17:54:47 436.795 FM
Hamsat 24 May 18:07:52 18:09:22 12° 62° (ENE) 18:10:52 145.90 MHz
Sapphire 24 May 18:08:00 18:11:53 20° 254° (WSW) 18:15:45 437.095 MHz 1200 baud AX-25 AFSK
RS-15 24 May 18:32:50 18:44:08 46° 317° (NW) 18:55:01 29.354 - 29.394 USB, Beacon 29.352 USB
UOSAT-12 24 May 18:55:50 18:58:56 18° 41° (NE) 19:02:01 437.025 FM, 437.400 FM
AO-7 24 May 18:56:19 19:02:22 22° 268° (W) 19:08:29 29.400 - 29.500 MHz
SO-67 24 May 19:08:29 19:10:30 15° 67° (ENE) 19:12:31 435.3500 MHz FM
JAS-1B 24 May 19:13:34 19:21:59 46° 68° (ENE) 19:29:12 435.800 - 435.900 CW/SSB
STRAND 1 24 May 19:22:18 19:27:21 54° 100° (E) 19:32:23 ?
Hamsat 24 May 19:40:42 19:44:53 65° 259° (W) 19:49:07 145.90 MHz
JAS-2 24 May 19:47:07 19:47:43 10° 49° (NE) 19:48:19 435.800 - 435.900 CW/SSB, 435.910 FM
UOSAT-12 24 May 20:35:00 20:39:36 72° 240° (WSW) 20:44:10 437.025 FM, 437.400 FM
HO-68 24 May 20:36:45 20:42:50 32° 61° (ENE) 20:48:54 435.675 MHz FM
SO-67 24 May 20:40:24 20:43:40 34° 263° (W) 20:46:58 435.3500 MHz FM
RS-15 24 May 20:52:08 21:00:33 22° 349° (N) 21:08:44 29.354 - 29.394 USB, Beacon 29.352 USB
STRAND 1 24 May 21:02:31 21:06:08 20° 297° (WNW) 21:09:46 ?
JAS-1B 24 May 21:03:54 21:12:28 43° 262° (W) 21:19:54 435.800 - 435.900 CW/SSB
JAS-2 24 May 21:23:35 21:30:56 48° 68° (ENE) 21:38:19 435.800 - 435.900 CW/SSB, 435.910 FM
OPAL 24 May 21:43:10 21:47:28 27° 64° (ENE) 21:51:44 ?
Oscar 11 24 May 21:44:13 21:48:15 41° 72° (ENE) 21:52:20 145.825 FM, Beacon 2401.500 USB
HO-68 24 May 22:23:17 22:30:11 53° 259° (W) 22:37:09 435.675 MHz FM
KITSAT 1 24 May 22:37:29 22:45:09 51° 112° (ESE) 22:52:54 435.175 FM
JAS-2 24 May 23:08:52 23:15:58 39° 265° (W) 23:23:10 435.800 - 435.900 CW/SSB, 435.910 FM
RS-15 24 May 23:09:02 23:18:17 28° 25° (NNE) 23:27:14 29.354 - 29.394 USB, Beacon 29.352 USB
OPAL 24 May 23:21:20 23:26:10 39° 260° (W) 23:31:00 ?
Oscar 11 24 May 23:21:48 23:24:40 17° 267° (W) 23:27:33 145.825 FM, Beacon 2401.500 USB
MaSat-1 25 May 00:25:26 00:29:44 18° 103° (ESE) 00:33:38 437.345 MHz
KITSAT 1 25 May 00:33:13 00:40:43 41° 313° (NW) 00:48:18 435.175 FM
RS-15 25 May 01:21:49 01:33:00 73° 54° (NE) 01:43:52 29.354 - 29.394 USB, Beacon 29.352 USB
ISS 25 May 01:42:11 01:44:56 25° 134° (SE) 01:47:42 145.800 FM
Oscar 16 25 May 02:00:34 02:04:28 21° 93° (E) 02:08:20 437.025 USB, Beacon 2401.1428
MaSat-1 25 May 02:04:29 02:11:32 83° 295° (WNW) 02:17:15 437.345 MHz
AO-27 25 May 02:14:59 02:18:55 21° 93° (E) 02:22:51 436.795 MHz FM
ITAMSAT 1 25 May 02:20:52 02:25:02 24° 94° (E) 02:29:10 435.822 SSB
KITSAT 1 25 May 02:34:43 02:38:46 14° 339° (NNW) 02:42:51 435.175 FM
AO-Echo 25 May 02:46:24 02:48:30 13° 90° (E) 02:50:36 ?
Oscar 19 25 May 02:59:06 03:04:15 65° 102° (ESE) 03:09:21 437.125 CW, 437.150 USB
Uribyol 2 25 May 03:00:38 03:05:49 58° 101° (E) 03:10:57 436.500 FM
ISS 25 May 03:18:21 03:21:30 40° 331° (NNW) 03:24:41 145.800 FM
RS-15 25 May 03:35:20 03:44:17 30° 256° (WSW) 03:53:09 29.354 - 29.394 USB, Beacon 29.352 USB
Oscar 16 25 May 03:39:07 03:44:03 46° 290° (WNW) 03:48:57 437.025 USB, Beacon 2401.1428
MaSat-1 25 May 03:50:19 03:54:09 16° 310° (NW) 03:57:35 437.345 MHz
AO-27 25 May 03:53:40 03:58:40 47° 290° (WNW) 04:03:40 436.795 MHz FM

Developed and maintained by Chris Peat, Heavens-Above GmbH. Please read the updated FAQ before sending e-mail. Imprint. DLR
